Regional Weather Roundup
Issued by NWS

Home | Current Version | Previous Version | Text Only | Print | Product List | Glossary Off
Versions: 1 2 3 4 5 6 7 8 9 10 11 12 13 14 15 16 17 18 19 20 21 22 23 24 25 26 27 28 29 30 31 32 33 34 35 36 37 38 39 40 41 42 43 44 45 46 47 48 49 50

000
ASUS45 KTFX 010810
RWRMT
MONTANA REGIONAL WEATHER ROUNDUP
NATIONAL WEATHER SERVICE GREAT FALLS MT
200 AM MDT WED JUL 01 2015

NOTE: "FAIR" INDICATES FEW OR NO CLOUDS BELOW 12000 FEET WITH NO
SIGNIFICANT WEATHER AND/OR OBSTRUCTIONS TO VISIBILITY.

MTZ001>007-043-010900-
WEST OF THE DIVIDE

CITY           SKY/WX    TMP DP  RH WIND       PRES   REMARKS
KALISPELL      SUNNY     60  50  69 CALM      30.01R
MISSOULA       CLEAR     65  46  50 CALM      30.05S
BUTTE          CLEAR     58  45  62 SE5       30.19R
MULLAN PASS    CLEAR     67  41  38 W5        30.22F
DEER LODGE       N/A     59  46  63 CALM      30.16S
EUREKA           N/A     63  54  72 CALM      30.00S
HAMILTON         N/A     64  50  59 S6        30.07S
PLAINS           N/A     61  48  62 CALM      30.02S
RONAN            N/A     60  51  72 CALM      30.07S
$$

MTZ008-052>055-010900-
SOUTHWEST MONTANA

CITY           SKY/WX    TMP DP  RH WIND       PRES   REMARKS
BOZEMAN        PTCLDY    65  49  56 CALM      30.09F
DILLON         CLEAR     66  45  46 S5        30.14F
W YELLOWSTONE  CLEAR     52  48  87 CALM      30.25F
THREE FORKS      N/A     63  63 100 CALM      30.07S
TWIN BRIDGES     N/A     67  43  41 CALM      30.10F
$$

MTZ009-010-012-014-046-048-049-054-010900-
EAST SLOPES AND CENTRAL MONTANA

CITY           SKY/WX    TMP DP  RH WIND       PRES   REMARKS
CUT BANK       PTCLDY    58  53  84 NW3       30.08S HAZE
GREAT FALLS    CLEAR     64  52  64 CALM      30.06S
MALMSTROM AFB  CLEAR     64  53  67 E5        30.06R
HELENA         CLEAR     73  47  39 W9        30.07R
CONRAD           N/A     55  55 100 N1        30.10R
$$

MTZ011-013-016-021-045-047-050-051-010900-
NORTH CENTRAL MONTANA

CITY           SKY/WX    TMP DP  RH WIND       PRES   REMARKS
HAVRE          PTCLDY    59  53  80 W3        30.01R HAZE
LEWISTOWN      CLEAR     59  51  75 S7        30.09S
CHINOOK          N/A     59  55  88 W3        29.99R
FORT BENTON      N/A     64  54  68 CALM      30.03S
$$

MTZ017>020-022>027-061-062-010900-
NORTHEAST MONTANA

CITY           SKY/WX    TMP DP  RH WIND       PRES   REMARKS
JORDAN           N/A     64  55  72 W8        29.95R
SIDNEY         MOCLDY    64  61  88 CALM      29.93S
WOLF POINT     CLEAR     62  58  86 CALM      29.93R FOG
MALTA            N/A     63  54  72 CALM      29.94R
PLENTYWOOD       N/A     61  61 100 N8        29.96S
POPLAR           N/A     63  63 100 NE6       29.94R
SCOBEY           N/A     57  52  84 NE3       29.97R
$$

MTZ028>42-056>058-010900-
SOUTHCENTRAL AND SOUTHEAST MONTANA

CITY           SKY/WX    TMP DP  RH WIND       PRES   REMARKS
BAKER          FOG       63  62  97 E5        29.92F VSB 1/4
BILLINGS       PTCLDY    74  48  39 CALM      30.06S
LIVINGSTON     CLEAR     66  48  52 SE5       30.11R
MILES CITY     CLEAR     69  54  58 NW7       29.92S
EKALAKA          N/A     64  54  70 CALM      29.95R
FORSYTH          N/A     73  54  49 SW5       29.96R
LAUREL           N/A     69  47  45 CALM      30.04S
ROUNDUP          N/A     68  49  50 CALM      29.97R
$$

REGIONAL REPORTS...DAKOTAS

CITY           SKY/WX    TMP DP  RH WIND       PRES   REMARKS
WILLISTON      PTCLDY    61  59  93 N7        29.94S FOG
MINOT          FOG       61  59  93 SW5       29.92R VSB 3/4
DICKINSON      CLOUDY    63  61  93 SE8       29.90S FOG
BEACH          LGT RAIN  59  59 100 E5        29.94R
CROSBY         FOG       59  59 100 CALM      29.97S VSB<1/4
BISMARCK       PTCLDY    63  61  93 SE6       29.90S
GRAND FORKS    CLOUDY    62  58  86 E5        29.92S
FARGO          CLOUDY    65  60  84 CALM      29.91R
BUFFALO SD       N/A     63  60  90 SE5       29.85F
RAPID CITY     CLEAR     67  65  93 E3        29.92F
$$

REGIONAL REPORTS...WYOMING/IDAHO/WASHINGTON

CITY           SKY/WX    TMP DP  RH WIND       PRES   REMARKS
GILLETTE       CLEAR     64  51  62 W5        30.04S
SHERIDAN       CLEAR     64  48  56 NW8       30.06S
BUFFALO WY     CLEAR     71  44  37 NW10      30.13R
CODY           PTCLDY    66  46  48 W5        30.14R
YELLOWSTONE LA   N/A     51  45  79 CALM      30.36F
IDAHO FALLS    MOCLDY    60  58  92 CALM      30.10R
SALMON         CLEAR     68  50  52 CALM      30.06S
BOISE          CLEAR     76  51  41 SW3       29.96R
SPOKANE        CLEAR     74  47  38 W8        29.97S
$$

REGIONAL REPORTS...ALBERTA

CITY           SKY/WX    TMP DP  RH WIND       PRES   REMARKS
EDMONTON       MOCLDY    63  57  82 NW3       29.97F
CALGARY        CLOUDY    63  57  82 CALM      30.08S
LETHBRIDGE     CLOUDY    61  59  94 W6        30.04S FOG
MEDICINE HAT   CLEAR     59  54  82 NE5       30.01S HAZE
ONEFOUR          N/A     57  52  82 W5          N/A
$$

REGIONAL REPORTS...SASKATCHEWAN

CITY           SKY/WX    TMP DP  RH WIND       PRES   REMARKS
SWIFT CURRENT  CLEAR     55 N/A N/A S6        30.00S VSB 1
REGINA         PTCLDY    54  54 100 NW6       29.98S SMOKE
SASKATOON      CLEAR     59  57  94 SW7       29.97R
CYPRESS HILLS    N/A     55  54  94 NE3         N/A
VAL MARIE        N/A     55  52  88 NE5         N/A
ASSINIBOIA       N/A     64  61  88 SE1         N/A
$$



USA.gov is the U.S. government's official web portal to all federal, state and local government web resources and services.